Find Starlink 33670

NORAD ID: 63413 Int'l Des: 2025-065 Owner: SPXS Country: US Constellation: starlink operational
LEOCIRCULAR

Current View

Loading 3D Globe...

About Starlink 33670

Starlink 33670 (NORAD 63413) is a starlink constellation satellite (v2 mini) launched Mar 31, 2025 by SPXS of US. It operates in LEO, CIRCULAR orbit with a mass of 575.00 kg.

About Starlink 33670

Description loading...

Upcoming Passes

Passes for default location (London). Set your location on the main map for personalized predictions.

Altitude History

Loading altitude history...

Two-Line Element Set

1 63413U 25065Q 26169.53108278 .00012296 00000-0 45532-3 0 9995
2 63413 42.9938 257.4258 0000626 169.8073 190.2792 15.27600283 68261
Epoch: Jun 18, 2026 • Age: 10 hours

Current Status

Altitude 485.0 km
Velocity 7.63 km/s
Sub-Earth Point 37.47°N, 66.29°E
Launch Date Mar 31, 2025
Age 1.2 years
Type internet

Technical Details

Classification Payload
Mass 575.00 kg
Dry Mass 530.00 kg
Total Mass 575.00 kg
Length 0.30 m
Diameter 4.10 m
Span 29.00 m
Shape Box + pan
Manufacturer SPXS
Bus Type Starlink V2MO
Phase Status In Orbit
Owner/State SPXS/US

Most Searched